Regional Weather Roundup
Issued by NWS Green Bay, WI

Home | Current Version | Previous Version | Text Only | Print | Product List | Glossary On
Versions: 1 2 3 4 5 6 7 8 9 10 11 12 13 14 15 16 17 18 19 20 21 22 23 24 25 26 27 28 29 30 31 32 33 34 35 36 37 38 39 40 41 42 43 44 45 46 47 48 49 50
000
ASUS43 KGRB 170811
RWRGRB

NORTH-CENTRAL AND NORTHEAST WISCONSIN REGIONAL WEATHER ROUNDUP
NATIONAL WEATHER SERVICE GREEN BAY WI
300 AM CDT TUE OCT 17 2017

WIZ005-009-010>012-018-019-170900-
NORTH CENTRAL WISCONSIN

CITY           SKY/WX    TMP DP  RH WIND       PRES   REMARKS
IRONWOOD       CLEAR     50  37  61 SW8       29.91S
MANITOWISH WTR CLEAR     47  36  65 SW8       29.93F
ARBOR VITAE    CLEAR     42  36  79 S5        29.94F
EAGLE RIVER    CLEAR     44  34  66 SW9       29.94S
LAND O LAKES   CLEAR     45  36  70 SW3       29.95S
RHINELANDER    CLOUDY    46  37  71 SW9       29.97S
PHILLIPS       CLOUDY    48  37  65 SW6       29.96S
ANTIGO         CLOUDY    45  36  70 SW8       29.99S
TOMAHAWK       CLOUDY    44  36  71 CALM      29.98R
MERRILL        CLOUDY    45  36  71 W3        29.99S
$$

WIZ013-073-170900-
NORTHEAST WISCONSIN

CITY           SKY/WX    TMP DP  RH WIND       PRES   REMARKS
IRON MOUNTAIN  CLEAR     39  34  82 CALM      29.93F
MARINETTE      PTCLDY    49  37  63 SW8       29.98F
OCONTO         CLOUDY    50  37  59 SW9       29.99F
$$

WIZ017-030-035>037-045-170900-
CENTRAL WISCONSIN

CITY           SKY/WX    TMP DP  RH WIND       PRES   REMARKS
MEDFORD        CLOUDY    46  36  69 SW6       29.98F
WAUSAU         CLOUDY    46  37  71 VRB5      29.98S
MOSINEE        CLOUDY    45  37  76 SW8       30.01S
MARSHFIELD     CLOUDY    44  35  70 SW7       30.00S
WISC RAPIDS    PTCLDY    47  39  74 SW5       30.02F
STEVENS POINT  CLOUDY    44  35  72 SW6       30.02S
WAUPACA        PTCLDY    48  38  68 S7        30.02F
SHAWANO        CLOUDY    49  37  63 SW3       30.00S
CLINTONVILLE   CLOUDY    48  37  66 SW8       30.01F
WAUTOMA        CLOUDY    38  36  92 S3          N/A
$$

WIZ038-039-048-051-170900-
FOX VALLEY

CITY           SKY/WX    TMP DP  RH WIND       PRES   REMARKS
NWS GREEN BAY  CLOUDY    51  41  68 S9        30.02F
APPLETON       CLOUDY    48  34  57 SW14      30.02F
OSHKOSH        CLEAR     49  38  65 S15       30.04F
FOND DU LAC    CLEAR     52  36  54 SW12G21   30.07F
$$

WIZ022-050-052-170900-
EAST CENTRAL WISCONSIN

CITY           SKY/WX    TMP DP  RH WIND       PRES   REMARKS
EPHRAIM        FAIR      54  39  58 SW9       29.97F
WASHINGTON ISL FAIR      54  44  67 SW12G18   29.96F
STURGEON BAY   CLOUDY    52  38  58 SW14      30.00F
MANITOWOC      CLEAR     53  37  54 SW10      30.05F
SHEBOYGAN      CLEAR     52  39  61 SW12      30.07F
$$

LMZ563-521-522-541>543-170900-
LAKESHORE

STATION/POSITION TIME  TEMP    WIND        PRES    VSBY  WAVE
                       AIR SEA DIR/SP/G                  HT/PER
                 (UTC) (F)     (DEG/KT/KT) (MB)    (MI)  (FT/S)
SHEBOYGAN LKSHOR 0800   51     210/  9/ 11 1018.3F
KEWAUNEE LKSHORE 0742   50     220/  7/  9 1016.3F
NORTHPORT PIER   0740   53     180/  4/  9 1014.9F
N MID LAKE BUOY  0750   59 60  210/ 25/ 31 1015.2F         6/ 6
S GREEN BAY BUOY 0800   56 58  210/ 19/ 25 1015.1
SISTER BAY LKSHO 0804   58     210/ 15/ 18   N/A
MENOMINEE LKSHOR 0742   53     210/ 13/ 16 1014.7F
$$




USA.gov is the U.S. government's official web portal to all federal, state and local government web resources and services.